Location: Recife
(8.0585°S, 34.8848°W)
Time: 06:51:08
(UTC-03:00)

Vanguard 1 - Pass Details

Date: 22 April 2026
Orbit: 654 x 3817 km, 34.2° (Epoch: 13 May)

Event Time Altitude Azimuth Distance (km) Brightness Sun altitude
Rises 06:47:19 0° 300° (WNW) 5,299 13.4 19.7°
Reaches altitude 10° 06:51:33 10° 297° (WNW) 3,800 12.7 20.7°
Maximum altitude 07:00:15 63° 218° (SW) 1,123 10.5 22.8°
Drops below altitude 10° 07:05:28 10° 136° (SE) 2,325 12.4 24.0°
Sets 07:07:31 0° 132° (SE) 3,116 13.1 24.5°
